Location: Laura�t
(43.9341°N, 0.2497°E)
Time: 22:39:05
(UTC+00:00)

Resurs 1-3 - Pass Details

Date: 03 March 2021
Orbit: 629 x 633 km, 97.9° (Epoch: 17 April)

Event Time Altitude Azimuth Distance (km) Brightness Sun altitude
Exits shadow 19:38:51 34° 47° (NE) 1,058 4.4 -20.3°
Drops below altitude 10° 19:42:09 10° 4° (N) 2,026 6.3 -20.9°
Sets 19:44:28 0° 356° (N) 2,939 7.2 -21.3°
